Location: Cheching
(60.0667°N, 164.2167°W)
Time: 02:37:13
(UTC+00:00)

UNISAT 6 - Pass Details

Date: 20 January 2021
Orbit: 607 x 687 km, 97.7° (Epoch: 05 March)

Event Time Altitude Azimuth Distance (km) Brightness Sun altitude
Rises 14:50:45 0° 90° (E) 2,891 ? -34.1°
Reaches altitude 10° 14:54:25 10° 57° (ENE) 2,003 ? -33.7°
Maximum altitude 14:55:47 11° 39° (NE) 1,921 ? -33.5°
Drops below altitude 10° 14:57:09 10° 20° (NNE) 2,019 ? -33.3°
Enters shadow 14:58:35 - 5° (N) 2,287 ? -33.2°
